| time (UTC) | temp F | wind direction | speed MPH | gust MPH | rain 1hr in | rain 24hr in | rain mn in | humidity % | barometer mb |
| 20260506011557 | 43 | 323 | 5.0 | 14.0 | 0.00 | 0.00 | 0.00 | 46 | 1013.3 |
| 20260506011059 | 43 | 340 | 3.0 | 13.0 | 0.00 | 0.00 | 0.00 | 46 | 1013.2 |
| 20260506010559 | 43 | 330 | 4.0 | 13.0 | 0.00 | 0.00 | 0.00 | 45 | 1013.1 |
| 20260506005600 | 44 | 317 | 4.0 | 17.0 | 0.00 | 0.00 | 0.00 | 44 | 1013.0 |
| 20260506005058 | 44 | 5 | 5.0 | 14.0 | 0.00 | 0.00 | 0.00 | 44 | 1012.9 |
| 20260506004604 | 44 | 271 | 5.0 | 14.0 | 0.00 | 0.00 | 0.00 | 44 | 1012.9 |
| 20260506004059 | 45 | 313 | 6.0 | 14.0 | 0.00 | 0.00 | 0.00 | 44 | 1012.9 |
| 20260506003604 | 45 | 331 | 6.0 | 14.0 | 0.00 | 0.00 | 0.00 | 44 | 1012.8 |
| 20260506003107 | 45 | 330 | 6.0 | 14.0 | 0.00 | 0.00 | 0.00 | 44 | 1012.8 |
| 20260506002601 | 45 | 291 | 7.0 | 14.0 | 0.00 | 0.00 | 0.00 | 43 | 1012.7 |
| 20260506002058 | 45 | 312 | 5.0 | 16.0 | 0.00 | 0.00 | 0.00 | 43 | 1012.7 |
| 20260506001606 | 45 | 314 | 3.0 | 16.0 | 0.00 | 0.00 | 0.00 | 43 | 1012.6 |
| 20260506001056 | 46 | 309 | 7.0 | 16.0 | 0.00 | 0.00 | 0.00 | 42 | 1012.6 |
| 20260506000559 | 46 | 304 | 4.0 | 14.0 | 0.00 | 0.00 | 0.00 | 42 | 1012.7 |
| 20260506000110 | 46 | 317 | 8.0 | 19.0 | 0.00 | 0.00 | 0.00 | 42 | 1012.5 |
| 20260505235600 | 46 | 288 | 8.0 | 19.0 | 0.00 | 0.00 | 0.00 | 42 | 1012.5 |
| 20260505235059 | 46 | 296 | 6.0 | 18.0 | 0.00 | 0.00 | 0.00 | 42 | 1012.6 |
| 20260505234613 | 46 | 286 | 6.0 | 18.0 | 0.00 | 0.00 | 0.00 | 42 | 1012.7 |
| 20260505234059 | 46 | 309 | 5.0 | 15.0 | 0.00 | 0.00 | 0.00 | 42 | 1012.5 |
| 20260505233558 | 46 | 325 | 6.0 | 15.0 | 0.00 | 0.00 | 0.00 | 43 | 1012.5 |
| 20260505233058 | 46 | 302 | 6.0 | 12.0 | 0.00 | 0.00 | 0.00 | 43 | 1012.6 |
| 20260505232558 | 46 | 289 | 5.0 | 15.0 | 0.00 | 0.00 | 0.00 | 42 | 1012.5 |
| 20260505232059 | 46 | 290 | 7.0 | 15.0 | 0.00 | 0.00 | 0.00 | 42 | 1012.4 |
| 20260505231556 | 46 | 301 | 6.0 | 13.0 | 0.00 | 0.00 | 0.00 | 42 | 1012.5 |
| 20260505231058 | 46 | 273 | 5.0 | 13.0 | 0.00 | 0.00 | 0.00 | 42 | 1012.4 |
| 20260505230601 | 47 | 321 | 5.0 | 14.0 | 0.00 | 0.00 | 0.00 | 42 | 1012.4 |
| 20260505230057 | 47 | 299 | 5.0 | 14.0 | 0.00 | 0.00 | 0.00 | 42 | 1012.4 |
| 20260505225559 | 47 | 263 | 7.0 | 14.0 | 0.00 | 0.00 | 0.00 | 41 | 1012.4 |
| 20260505225058 | 47 | 274 | 5.0 | 14.0 | 0.00 | 0.00 | 0.00 | 42 | 1012.4 |
| 20260505224603 | 47 | 300 | 7.0 | 16.0 | 0.00 | 0.00 | 0.00 | 42 | 1012.4 |
| 20260505224059 | 47 | 269 | 8.0 | 16.0 | 0.00 | 0.00 | 0.00 | 42 | 1012.4 |
| 20260505223559 | 47 | 278 | 5.0 | 15.0 | 0.00 | 0.00 | 0.00 | 42 | 1012.3 |
| 20260505223113 | 47 | 275 | 6.0 | 14.0 | 0.00 | 0.00 | 0.00 | 42 | 1012.3 |
| 20260505222559 | 47 | 319 | 5.0 | 13.0 | 0.00 | 0.00 | 0.00 | 42 | 1012.3 |
| 20260505222059 | 47 | 277 | 8.0 | 18.0 | 0.00 | 0.00 | 0.00 | 41 | 1012.4 |
| 20260505221606 | 47 | 310 | 8.0 | 18.0 | 0.00 | 0.00 | 0.00 | 40 | 1012.1 |
| 20260505221058 | 47 | 280 | 6.0 | 18.0 | 0.00 | 0.00 | 0.00 | 42 | 1012.2 |
| 20260505220559 | 47 | 298 | 9.0 | 18.0 | 0.00 | 0.00 | 0.00 | 41 | 1012.3 |
| 20260505215602 | 47 | 317 | 8.0 | 17.0 | 0.00 | 0.00 | 0.00 | 40 | 1012.2 |
| 20260505215059 | 47 | 318 | 5.0 | 16.0 | 0.00 | 0.00 | 0.00 | 40 | 1012.3 |
| 20260505214603 | 47 | 272 | 8.0 | 16.0 | 0.00 | 0.00 | 0.00 | 40 | 1012.2 |
| 20260505214101 | 48 | 349 | 10.0 | 16.0 | 0.00 | 0.00 | 0.00 | 39 | 1012.2 |
| 20260505213601 | 48 | 344 | 6.0 | 17.0 | 0.00 | 0.00 | 0.00 | 40 | 1012.2 |
| 20260505213101 | 48 | 296 | 9.0 | 17.0 | 0.00 | 0.00 | 0.00 | 41 | 1012.3 |
| 20260505212559 | 47 | 288 | 8.0 | 16.0 | 0.00 | 0.00 | 0.00 | 40 | 1012.3 |
| 20260505212059 | 48 | 269 | 6.0 | 17.0 | 0.00 | 0.00 | 0.00 | 40 | 1012.4 |
| 20260505211629 | 48 | 254 | 7.0 | 17.0 | 0.00 | 0.00 | 0.00 | 39 | 1012.3 |
| 20260505211059 | 48 | 289 | 8.0 | 16.0 | 0.00 | 0.00 | 0.00 | 39 | 1012.4 |
| 20260505210558 | 48 | 348 | 8.0 | 16.0 | 0.00 | 0.00 | 0.00 | 39 | 1012.4 |
| 20260505210059 | 48 | 317 | 7.0 | 13.0 | 0.00 | 0.00 | 0.00 | 39 | 1012.4 |
| 20260505205559 | 48 | 317 | 6.0 | 14.0 | 0.00 | 0.00 | 0.00 | 40 | 1012.5 |
| 20260505205059 | 48 | 286 | 6.0 | 14.0 | 0.00 | 0.00 | 0.00 | 41 | 1012.5 |
| 20260505204600 | 48 | 311 | 6.0 | 17.0 | 0.00 | 0.00 | 0.00 | 40 | 1012.4 |
| 20260505204100 | 48 | 281 | 9.0 | 18.0 | 0.00 | 0.00 | 0.00 | 39 | 1012.7 |
| 20260505203558 | 48 | 321 | 8.0 | 18.0 | 0.00 | 0.00 | 0.00 | 39 | 1012.6 |
| 20260505203126 | 48 | 273 | 6.0 | 18.0 | 0.00 | 0.00 | 0.00 | 39 | 1012.7 |
| 20260505202558 | 48 | 304 | 6.0 | 18.0 | 0.00 | 0.00 | 0.00 | 40 | 1012.7 |
| 20260505202101 | 48 | 288 | 5.0 | 15.0 | 0.00 | 0.00 | 0.00 | 39 | 1012.7 |
| 20260505201600 | 48 | 273 | 7.0 | 15.0 | 0.00 | 0.00 | 0.00 | 39 | 1012.7 |
| 20260505201059 | 48 | 278 | 8.0 | 15.0 | 0.00 | 0.00 | 0.00 | 39 | 1012.7 |
| 20260505200559 | 48 | 261 | 7.0 | 15.0 | 0.00 | 0.00 | 0.00 | 39 | 1012.8 |
| 20260505200057 | 48 | 282 | 7.0 | 16.0 | 0.00 | 0.00 | 0.00 | 40 | 1012.7 |
| 20260505195559 | 48 | 258 | 7.0 | 16.0 | 0.00 | 0.00 | 0.00 | 40 | 1012.8 |
| 20260505195058 | 48 | 307 | 6.0 | 17.0 | 0.00 | 0.00 | 0.00 | 40 | 1012.8 |
| 20260505194559 | 48 | 342 | 6.0 | 17.0 | 0.00 | 0.00 | 0.00 | 39 | 1012.8 |
| 20260505194059 | 48 | 286 | 8.0 | 16.0 | 0.00 | 0.00 | 0.00 | 39 | 1012.8 |
| 20260505193558 | 48 | 294 | 6.0 | 15.0 | 0.00 | 0.00 | 0.00 | 41 | 1012.7 |
| 20260505193056 | 48 | 346 | 7.0 | 15.0 | 0.00 | 0.00 | 0.00 | 39 | 1012.7 |
| 20260505192602 | 48 | 297 | 7.0 | 17.0 | 0.00 | 0.00 | 0.00 | 39 | 1012.6 |
| 20260505192058 | 48 | 284 | 8.0 | 17.0 | 0.00 | 0.00 | 0.00 | 40 | 1012.7 |
| 20260505191558 | 49 | 292 | 7.0 | 17.0 | 0.00 | 0.00 | 0.00 | 40 | 1012.7 |
| 20260505191059 | 48 | 327 | 8.0 | 15.0 | 0.00 | 0.00 | 0.00 | 42 | 1012.7 |
| 20260505190557 | 48 | 323 | 7.0 | 15.0 | 0.00 | 0.00 | 0.00 | 44 | 1012.7 |
| 20260505190058 | 48 | 274 | 8.0 | 17.0 | 0.00 | 0.00 | 0.00 | 42 | 1012.7 |
| 20260505185559 | 48 | 317 | 5.0 | 17.0 | 0.00 | 0.00 | 0.00 | 43 | 1012.7 |
| 20260505185059 | 48 | 285 | 5.0 | 15.0 | 0.00 | 0.00 | 0.00 | 43 | 1012.7 |
| 20260505184556 | 47 | 277 | 7.0 | 15.0 | 0.00 | 0.00 | 0.00 | 43 | 1012.7 |
| 20260505184101 | 47 | 294 | 7.0 | 15.0 | 0.00 | 0.00 | 0.00 | 42 | 1012.7 |
| 20260505183602 | 47 | 313 | 7.0 | 15.0 | 0.00 | 0.00 | 0.00 | 42 | 1012.7 |
| 20260505183104 | 47 | 293 | 8.0 | 15.0 | 0.00 | 0.00 | 0.00 | 41 | 1012.7 |
| 20260505182602 | 47 | 323 | 6.0 | 16.0 | 0.00 | 0.00 | 0.00 | 43 | 1012.7 |
| 20260505182101 | 47 | 257 | 5.0 | 20.0 | 0.00 | 0.00 | 0.00 | 44 | 1012.7 |
| 20260505181556 | 46 | 290 | 7.0 | 20.0 | 0.00 | 0.00 | 0.00 | 41 | 1012.7 |
| 20260505181058 | 46 | 257 | 8.0 | 18.0 | 0.00 | 0.00 | 0.00 | 43 | 1012.7 |
| 20260505180558 | 46 | 284 | 9.0 | 18.0 | 0.00 | 0.00 | 0.00 | 43 | 1012.7 |
| 20260505180114 | 46 | 261 | 6.0 | 13.0 | 0.00 | 0.00 | 0.00 | 43 | 1012.7 |
| 20260505175558 | 46 | 327 | 5.0 | 16.0 | 0.00 | 0.00 | 0.00 | 44 | 1012.7 |
| 20260505175104 | 46 | 294 | 5.0 | 16.0 | 0.00 | 0.00 | 0.00 | 44 | 1012.7 |
| 20260505174556 | 46 | 244 | 8.0 | 16.0 | 0.00 | 0.00 | 0.00 | 43 | 1012.7 |
| 20260505174059 | 46 | 277 | 9.0 | 14.0 | 0.00 | 0.00 | 0.00 | 43 | 1012.7 |
| 20260505173603 | 46 | 279 | 7.0 | 14.0 | 0.00 | 0.00 | 0.00 | 44 | 1012.7 |
| 20260505173057 | 46 | 298 | 8.0 | 14.0 | 0.00 | 0.00 | 0.00 | 44 | 1012.7 |
| 20260505172600 | 46 | 298 | 5.0 | 12.0 | 0.00 | 0.00 | 0.00 | 46 | 1012.7 |
| 20260505172058 | 46 | 311 | 7.0 | 13.0 | 0.00 | 0.00 | 0.00 | 45 | 1012.6 |
| 20260505171559 | 45 | 259 | 4.0 | 13.0 | 0.00 | 0.00 | 0.00 | 47 | 1012.5 |
| 20260505171056 | 45 | 288 | 3.0 | 11.0 | 0.00 | 0.00 | 0.00 | 48 | 1012.6 |
| 20260505170558 | 45 | 311 | 5.0 | 12.0 | 0.00 | 0.00 | 0.00 | 48 | 1012.5 |
| 20260505170058 | 44 | 334 | 6.0 | 12.0 | 0.00 | 0.00 | 0.00 | 47 | 1012.5 |
| 20260505165558 | 44 | 285 | 5.0 | 15.0 | 0.00 | 0.00 | 0.00 | 48 | 1012.5 |
| 20260505165059 | 44 | 283 | 5.0 | 15.0 | 0.00 | 0.00 | 0.00 | 49 | 1012.5 |
| 20260505164602 | 45 | 257 | 5.0 | 15.0 | 0.00 | 0.00 | 0.00 | 50 | 1012.5 |
| 20260505164101 | 45 | 290 | 5.0 | 15.0 | 0.00 | 0.00 | 0.00 | 50 | 1012.5 |
| 20260505163559 | 45 | 286 | 4.0 | 13.0 | 0.00 | 0.00 | 0.00 | 49 | 1012.5 |
| 20260505163056 | 45 | 322 | 7.0 | 13.0 | 0.00 | 0.00 | 0.00 | 48 | 1012.4 |
| 20260505162559 | 45 | 284 | 4.0 | 13.0 | 0.00 | 0.00 | 0.00 | 48 | 1012.3 |
| 20260505162058 | 45 | 296 | 5.0 | 13.0 | 0.00 | 0.00 | 0.00 | 47 | 1012.2 |
| 20260505161556 | 44 | 302 | 5.0 | 13.0 | 0.00 | 0.00 | 0.00 | 46 | 1012.2 |
| 20260505161058 | 44 | 298 | 5.0 | 16.0 | 0.00 | 0.00 | 0.00 | 46 | 1012.4 |
| 20260505160558 | 45 | 304 | 7.0 | 16.0 | 0.00 | 0.00 | 0.00 | 47 | 1012.3 |
| 20260505153059 | 47 | 293 | 4.0 | 17.0 | 0.00 | 0.00 | 0.00 | 48 | 1012.2 |
| 20260505152601 | 47 | 315 | 5.0 | 17.0 | 0.00 | 0.00 | 0.00 | 47 | 1012.0 |
| 20260505152058 | 47 | 335 | 7.0 | 17.0 | 0.00 | 0.00 | 0.00 | 47 | 1012.1 |
| 20260505151557 | 47 | 306 | 4.0 | 14.0 | 0.00 | 0.00 | 0.00 | 49 | 1012.0 |
| 20260505151058 | 47 | 330 | 7.0 | 14.0 | 0.00 | 0.00 | 0.00 | 53 | 1012.1 |
| 20260505150558 | 46 | 274 | 4.0 | 14.0 | 0.00 | 0.00 | 0.00 | 52 | 1012.0 |
| 20260505140558 | 41 | 300 | 6.0 | 10.0 | 0.00 | 0.00 | 0.00 | 63 | 1011.8 |
| 20260505140116 | 41 | 290 | 5.0 | 9.0 | 0.00 | 0.00 | 0.00 | 65 | 1011.8 |
| 20260505124601 | 33 | 276 | 4.0 | 9.0 | 0.00 | 0.00 | 0.00 | 74 | 1010.8 |
| 20260505124100 | 33 | 252 | 4.0 | 9.0 | 0.00 | 0.00 | 0.00 | 74 | 1010.7 |
| 20260505123558 | 33 | 254 | 3.0 | 9.0 | 0.00 | 0.00 | 0.00 | 74 | 1010.7 |
| 20260505123100 | 32 | 277 | 2.0 | 8.0 | 0.00 | 0.00 | 0.00 | 74 | 1010.7 |
| 20260505122558 | 32 | 279 | 3.0 | 8.0 | 0.00 | 0.00 | 0.00 | 74 | 1010.4 |
| 20260505122058 | 32 | 263 | 2.0 | 8.0 | 0.00 | 0.00 | 0.00 | 74 | 1010.4 |
| 20260505121557 | 32 | 284 | 2.0 | 6.0 | 0.00 | 0.00 | 0.00 | 74 | 1010.4 |
| 20260505121058 | 32 | 274 | 2.0 | 6.0 | 0.00 | 0.00 | 0.00 | 74 | 1010.3 |
| 20260505120558 | 32 | 268 | 2.0 | 6.0 | 0.00 | 0.00 | 0.00 | 74 | 1010.1 |
| 20260505120112 | 31 | 277 | 3.0 | 6.0 | 0.00 | 0.00 | 0.00 | 74 | 1010.1 |
| 20260505115558 | 31 | 264 | 1.0 | 4.0 | 0.00 | 0.00 | 0.00 | 73 | 1010.0 |
| 20260505115059 | 31 | 298 | 2.0 | 4.0 | 0.00 | 0.00 | 0.00 | 73 | 1009.9 |
| 20260505114559 | 32 | 305 | 1.0 | 6.0 | 0.00 | 0.00 | 0.00 | 73 | 1009.8 |
| 20260505114059 | 32 | 333 | 2.0 | 6.0 | 0.00 | 0.00 | 0.00 | 73 | 1009.8 |
| 20260505113604 | 32 | 324 | 2.0 | 6.0 | 0.00 | 0.00 | 0.00 | 73 | 1009.9 |
| 20260505113104 | 32 | 286 | 2.0 | 6.0 | 0.00 | 0.00 | 0.00 | 73 | 1009.9 |
| 20260505112558 | 32 | 311 | 2.0 | 7.0 | 0.00 | 0.00 | 0.00 | 73 | 1009.8 |
| 20260505112058 | 32 | 298 | 3.0 | 7.0 | 0.00 | 0.00 | 0.00 | 73 | 1009.8 |
| 20260505111600 | 32 | 295 | 3.0 | 7.0 | 0.00 | 0.00 | 0.00 | 73 | 1009.7 |
| 20260505111059 | 32 | 317 | 2.0 | 6.0 | 0.00 | 0.00 | 0.00 | 73 | 1009.6 |
| 20260505110557 | 32 | 312 | 2.0 | 6.0 | 0.00 | 0.00 | 0.00 | 73 | 1009.6 |
| 20260505102058 | 32 | 313 | 2.0 | 7.0 | 0.00 | 0.00 | 0.00 | 71 | 1009.4 |
| 20260505101601 | 33 | 319 | 2.0 | 7.0 | 0.00 | 0.00 | 0.00 | 71 | 1009.4 |
| 20260505101058 | 33 | 296 | 2.0 | 4.0 | 0.00 | 0.00 | 0.00 | 71 | 1009.5 |
| 20260505100559 | 33 | 310 | 2.0 | 4.0 | 0.00 | 0.00 | 0.00 | 71 | 1009.5 |
| 20260505100100 | 33 | 289 | 1.0 | 4.0 | 0.00 | 0.00 | 0.00 | 71 | 1009.5 |
| 20260505095558 | 33 | 296 | 2.0 | 4.0 | 0.00 | 0.00 | 0.00 | 71 | 1009.5 |
| 20260505095100 | 33 | 294 | 2.0 | 4.0 | 0.00 | 0.00 | 0.00 | 71 | 1009.4 |
| 20260505094602 | 33 | 293 | 2.0 | 5.0 | 0.00 | 0.00 | 0.00 | 70 | 1009.5 |
| 20260505094100 | 34 | 286 | 1.0 | 5.0 | 0.00 | 0.00 | 0.00 | 70 | 1009.4 |
| 20260505093558 | 34 | 308 | 2.0 | 4.0 | 0.00 | 0.00 | 0.00 | 70 | 1009.4 |
| 20260505093057 | 34 | 308 | 1.0 | 5.0 | 0.00 | 0.00 | 0.00 | 70 | 1009.4 |
| 20260505092557 | 34 | 300 | 2.0 | 5.0 | 0.00 | 0.00 | 0.00 | 70 | 1009.4 |
| 20260505092057 | 34 | 298 | 2.0 | 5.0 | 0.00 | 0.00 | 0.00 | 70 | 1009.4 |
| 20260505091602 | 34 | 284 | 2.0 | 5.0 | 0.00 | 0.00 | 0.00 | 70 | 1009.4 |
| 20260505091057 | 34 | 306 | 2.0 | 8.0 | 0.00 | 0.00 | 0.00 | 70 | 1009.3 |
| 20260505090558 | 34 | 302 | 2.0 | 8.0 | 0.00 | 0.00 | 0.00 | 70 | 1009.1 |
| 20260505090059 | 34 | 286 | 2.0 | 6.0 | 0.00 | 0.00 | 0.00 | 70 | 1009.1 |
| 20260505085600 | 34 | 298 | 2.0 | 6.0 | 0.00 | 0.00 | 0.00 | 69 | 1009.1 |
| 20260505085055 | 34 | 318 | 3.0 | 7.0 | 0.00 | 0.00 | 0.00 | 69 | 1009.1 |
| 20260505084606 | 35 | 340 | 2.0 | 7.0 | 0.00 | 0.00 | 0.00 | 69 | 1009.1 |
| 20260505084058 | 35 | 296 | 2.0 | 5.0 | 0.00 | 0.00 | 0.00 | 68 | 1009.2 |
| 20260505083603 | 35 | 309 | 2.0 | 4.0 | 0.00 | 0.00 | 0.00 | 68 | 1009.2 |
| 20260505083106 | 35 | 325 | 2.0 | 5.0 | 0.00 | 0.00 | 0.00 | 68 | 1009.2 |
| 20260505082558 | 35 | 294 | 2.0 | 5.0 | 0.00 | 0.00 | 0.00 | 68 | 1009.2 |
| 20260505082058 | 35 | 275 | 2.0 | 4.0 | 0.00 | 0.00 | 0.00 | 68 | 1009.2 |
| 20260505081603 | 36 | 283 | 2.0 | 6.0 | 0.00 | 0.00 | 0.00 | 67 | 1009.2 |
| 20260505081059 | 36 | 281 | 2.0 | 6.0 | 0.00 | 0.00 | 0.00 | 67 | 1009.2 |
| 20260505080558 | 36 | 294 | 2.0 | 4.0 | 0.00 | 0.00 | 0.00 | 67 | 1009.2 |
| 20260505080058 | 36 | 302 | 2.0 | 4.0 | 0.00 | 0.00 | 0.00 | 67 | 1009.1 |
| 20260505075558 | 36 | 279 | 2.0 | 6.0 | 0.00 | 0.00 | 0.00 | 66 | 1009.0 |
| 20260505075058 | 36 | 277 | 2.0 | 6.0 | 0.00 | 0.00 | 0.00 | 66 | 1009.0 |
| 20260505074602 | 36 | 287 | 1.0 | 5.0 | 0.00 | 0.00 | 0.00 | 66 | 1009.0 |
| 20260505074058 | 37 | 285 | 2.0 | 6.0 | 0.00 | 0.00 | 0.00 | 66 | 1009.0 |
| 20260505073558 | 37 | 290 | 2.0 | 6.0 | 0.00 | 0.00 | 0.00 | 65 | 1009.0 |
| 20260505073058 | 37 | 306 | 2.0 | 6.0 | 0.00 | 0.00 | 0.00 | 65 | 1009.0 |
| 20260505072602 | 37 | 293 | 2.0 | 6.0 | 0.00 | 0.00 | 0.00 | 65 | 1009.0 |
| 20260505072100 | 37 | 312 | 2.0 | 7.0 | 0.00 | 0.00 | 0.00 | 64 | 1009.0 |
| 20260505071600 | 37 | 286 | 2.0 | 7.0 | 0.00 | 0.00 | 0.00 | 64 | 1009.0 |
| 20260505071059 | 37 | 288 | 3.0 | 7.0 | 0.00 | 0.00 | 0.00 | 64 | 1009.0 |
| 20260505070601 | 37 | 296 | 2.0 | 6.0 | 0.00 | 0.00 | 0.00 | 64 | 1009.0 |
| 20260505070106 | 37 | 294 | 2.0 | 6.0 | 0.00 | 0.00 | 0.00 | 64 | 1009.0 |
| 20260505065559 | 37 | 291 | 2.0 | 6.0 | 0.00 | 0.00 | 0.00 | 63 | 1009.1 |
| 20260505065058 | 37 | 288 | 2.0 | 4.0 | 0.00 | 0.00 | 0.00 | 63 | 1009.1 |
| 20260505064558 | 37 | 289 | 2.0 | 4.0 | 0.00 | 0.00 | 0.00 | 63 | 1009.1 |
| 20260505064058 | 37 | 280 | 2.0 | 4.0 | 0.00 | 0.00 | 0.00 | 63 | 1009.2 |
| 20260505063558 | 37 | 286 | 2.0 | 4.0 | 0.00 | 0.00 | 0.00 | 62 | 1009.2 |
| 20260505063057 | 37 | 284 | 2.0 | 4.0 | 0.00 | 0.00 | 0.00 | 62 | 1009.2 |
| 20260505062602 | 37 | 275 | 2.0 | 4.0 | 0.00 | 0.00 | 0.00 | 62 | 1009.3 |
| 20260505062101 | 37 | 281 | 2.0 | 5.0 | 0.00 | 0.00 | 0.00 | 62 | 1009.3 |
| 20260505061627 | 37 | 266 | 2.0 | 5.0 | 0.00 | 0.00 | 0.00 | 62 | 1009.3 |
| 20260505061100 | 37 | 295 | 2.0 | 5.0 | 0.00 | 0.00 | 0.00 | 62 | 1009.2 |
| 20260505060601 | 37 | 295 | 2.0 | 4.0 | 0.00 | 0.00 | 0.00 | 61 | 1009.1 |
| 20260505055600 | 37 | 300 | 2.0 | 5.0 | 0.00 | 0.00 | 0.00 | 60 | 1009.1 |
| 20260505055059 | 37 | 294 | 2.0 | 5.0 | 0.00 | 0.00 | 0.00 | 59 | 1009.1 |
| 20260505054557 | 37 | 313 | 1.0 | 3.0 | 0.00 | 0.00 | 0.00 | 59 | 1009.0 |
| 20260505054058 | 37 | 301 | 1.0 | 3.0 | 0.00 | 0.00 | 0.00 | 59 | 1009.0 |
| 20260505053558 | 38 | 292 | 1.0 | 4.0 | 0.00 | 0.00 | 0.00 | 59 | 1009.0 |
| 20260505053059 | 38 | 304 | 1.0 | 4.0 | 0.00 | 0.00 | 0.00 | 59 | 1009.0 |
| 20260505052558 | 38 | 0 | 1.0 | 3.0 | 0.00 | 0.00 | 0.00 | 59 | 1009.0 |
| 20260505052100 | 38 | 278 | 2.0 | 3.0 | 0.00 | 0.00 | 0.00 | 59 | 1009.0 |
| 20260505051558 | 38 | 272 | 2.0 | 3.0 | 0.00 | 0.00 | 0.00 | 59 | 1009.0 |
| 20260505051058 | 38 | 277 | 2.0 | 3.0 | 0.00 | 0.00 | 0.00 | 58 | 1008.9 |
| 20260505050557 | 38 | 273 | 1.0 | 2.0 | 0.00 | 0.00 | 0.00 | 57 | 1008.9 |
| 20260505041604 | 40 | 0 | 0.0 | 1.0 | 0.00 | 0.00 | 0.00 | 53 | 1008.8 |
| 20260505041058 | 40 | 0 | 0.0 | 1.0 | 0.00 | 0.00 | 0.00 | 53 | 1008.9 |
| 20260505040558 | 40 | 0 | 0.0 | 1.0 | 0.00 | 0.00 | 0.00 | 53 | 1008.9 |
| 20260505040104 | 41 | 0 | 0.0 | 1.0 | 0.00 | 0.00 | 0.00 | 53 | 1008.9 |
| 20260505035558 | 41 | 325 | 0.0 | 2.0 | 0.00 | 0.00 | 0.00 | 52 | 1008.8 |
| 20260505035057 | 41 | 0 | 0.0 | 2.0 | 0.00 | 0.00 | 0.00 | 52 | 1008.8 |
| 20260505034602 | 42 | 0 | 0.0 | 2.0 | 0.00 | 0.00 | 0.00 | 53 | 1008.8 |
| 20260505034055 | 42 | 0 | 0.0 | 2.0 | 0.00 | 0.00 | 0.00 | 53 | 1008.8 |
| 20260505033559 | 42 | 336 | 0.0 | 2.0 | 0.00 | 0.00 | 0.00 | 52 | 1008.8 |
| 20260505033103 | 42 | 0 | 0.0 | 2.0 | 0.00 | 0.00 | 0.00 | 51 | 1008.7 |
| 20260505032559 | 43 | 336 | 0.0 | 3.0 | 0.00 | 0.00 | 0.00 | 51 | 1008.7 |
| 20260505032058 | 43 | 337 | 0.0 | 4.0 | 0.00 | 0.00 | 0.00 | 51 | 1008.7 |
| 20260505031558 | 43 | 326 | 1.0 | 4.0 | 0.00 | 0.00 | 0.00 | 51 | 1008.7 |
| 20260505031058 | 43 | 0 | 0.0 | 4.0 | 0.00 | 0.00 | 0.00 | 50 | 1008.7 |
| 20260505030558 | 44 | 319 | 0.0 | 3.0 | 0.00 | 0.00 | 0.00 | 49 | 1008.7 |
| 20260505030057 | 44 | 347 | 0.0 | 4.0 | 0.00 | 0.00 | 0.00 | 49 | 1008.6 |
| 20260505025558 | 44 | 323 | 0.0 | 4.0 | 0.00 | 0.00 | 0.00 | 49 | 1008.6 |
| 20260505025057 | 45 | 343 | 1.0 | 4.0 | 0.00 | 0.00 | 0.00 | 48 | 1008.5 |
| 20260505024558 | 45 | 5 | 1.0 | 4.0 | 0.00 | 0.00 | 0.00 | 48 | 1008.4 |
| 20260505024057 | 45 | 355 | 0.0 | 4.0 | 0.00 | 0.00 | 0.00 | 47 | 1008.4 |
| 20260505023555 | 46 | 5 | 1.0 | 4.0 | 0.00 | 0.00 | 0.00 | 47 | 1008.3 |
| 20260505023058 | 46 | 346 | 0.0 | 4.0 | 0.00 | 0.00 | 0.00 | 46 | 1008.2 |
| 20260505022559 | 46 | 0 | 0.0 | 4.0 | 0.00 | 0.00 | 0.00 | 46 | 1008.2 |
| 20260505022057 | 46 | 5 | 1.0 | 4.0 | 0.00 | 0.00 | 0.00 | 46 | 1008.1 |
| 20260505021602 | 47 | 331 | 1.0 | 7.0 | 0.00 | 0.00 | 0.00 | 45 | 1008.0 |
| 20260505021059 | 47 | 330 | 1.0 | 7.0 | 0.00 | 0.00 | 0.00 | 45 | 1008.0 |
| 20260505020600 | 47 | 344 | 3.0 | 8.0 | 0.00 | 0.00 | 0.00 | 44 | 1008.0 |
| 20260505020057 | 48 | 313 | 1.0 | 8.0 | 0.00 | 0.00 | 0.00 | 44 | 1007.9 |
| 20260505015558 | 48 | 306 | 2.0 | 8.0 | 0.00 | 0.00 | 0.00 | 43 | 1007.8 |
| 20260505015058 | 48 | 302 | 2.0 | 10.0 | 0.00 | 0.00 | 0.00 | 43 | 1007.7 |
| 20260505014556 | 48 | 317 | 3.0 | 13.0 | 0.00 | 0.00 | 0.00 | 42 | 1007.7 |
| 20260505014058 | 49 | 317 | 4.0 | 13.0 | 0.00 | 0.00 | 0.00 | 42 | 1007.6 |
| 20260505013558 | 49 | 348 | 5.0 | 13.0 | 0.00 | 0.00 | 0.00 | 42 | 1007.5 |
| 20260505013057 | 49 | 323 | 5.0 | 11.0 | 0.00 | 0.00 | 0.00 | 41 | 1007.5 |
| 20260505012558 | 49 | 311 | 4.0 | 14.0 | 0.00 | 0.00 | 0.00 | 41 | 1007.4 |
| 20260505012058 | 50 | 300 | 5.0 | 16.0 | 0.00 | 0.00 | 0.00 | 41 | 1007.4 |